Weather in Baragash

Russia / Altai Republic     51°16′20″N   85°11′41″E
temp.,
°C
wind,
m/s
gust,
m/s
humid.,
%
clouds,
%
prec.,
mm/h
press.,
hPa
HPBL,
m
6 may, thu
thu601:00+8s2262100 0.0 101324
04:00+7s3369100 0.0 101142
07:00+8s2367100 0.0 101251
10:00+13ssw2345100 0.0 1010271
13:00+16s2435100 0.0 1009534
16:00+19sw3430100 0.0 1009921
19:00+16s1140100 0.0 101022
22:00+11s335799 0.0 101144
7 may, fri
fri701:00+10s3456100 0.0 101152
04:00+10s355698 0.0 101184
07:00+10ssw2257100 0.0 101124
10:00+16wnw1242100 0.0 1010377
13:00+16nnw2448100 0.0 10111340
16:00+13w1267100 0.6 1012668
19:00+9nnw1296100 3.3 1015200
22:00+7n2388100 0.4 1019233
8 may, sat
sat801:00+4ene008178 0.4 102110
04:00+3s00815 0.0 102210
07:00+4s117999 0.0 102321
10:00+9n0053100 0.0 1020685
13:00+13n22376 0.0 10191268
16:00+14n33342 0.0 10181646
19:00+12n32410 0.0 10181197
22:00+6ne22800 0.0 102116
9 may, sun
sun901:00+4e11860 0.0 102210
04:00+3sse11869 0.0 102110
07:00+4sse117431 0.0 102132
10:00+11e0141100 0.0 1018649
13:00+15nne112845 0.0 10161246
16:00+16nne2227100 0.0 10151507
19:00+14ne223773 0.0 1015745
22:00+8e11695 0.0 101510
10 may, mon
mon1001:00+6sse117316 0.0 101410
04:00+6sse226595 0.0 101310
07:00+7s1163100 0.0 101217
10:00+14s123896 0.0 1009428
13:00+19wsw25215 0.0 10072021
16:00+19nw252499 0.0 10042934
19:00+15ene2251100 0.1 1004516
22:00+8ese2487100 7.0 1007259